Wind_Gust
14 20 20 19 18 15 14 18 15 15 17 17 16 17 18 20 19 17 20 16 14 20 21 20 22 18 13 14 15 14 13 15 17 19 19 19 18 18 19 20 19 18 19 20 20 19 18 18 20 18 18 20 18 17 17 16 19 21 23 20 22 21 23 22 26 26 28 27 24 24 25 24 23 22 20 21 19 18 17 18 20 19 18 18 18 18
21 22 18 16 14 15 15 14 16 16 14 17 20 19 22 19 21 19 21 19 20 23 22 22 23 15 16 14 14 14 14 18 18 18 19 20 19 19 19 20 21 20 20 22 22 22 21 22 17 15 20 19 20 22 20 20 21 24 22 23 20 21 23 24 26 26 26 24 25 28 27 23 23 22 23 21 21 18 18 17 18 18 17 18 18 17
20 20 17 11 11 11 15 14 16 17 18 17 22 19 20 21 19 16 20 18 16 19 23 20 20 20 16 15 14 15 15 16 17 18 19 19 19 20 21 21 21 21 21 22 24 23 26 21 21 16 18 19 18 19 22 19 21 23 24 22 25 26 23 25 25 25 26 22 20 21 25 22 22 23 23 20 21 19 18 16 16 18 17 18 18 18
19 17 15 14 12 15 17 17 16 17 18 20 20 22 21 16 18 22 21 16 17 23 22 20 23 21 18 16 15 15 14 15 15 17 19 18 20 22 22 22 22 20 22 23 24 24 25 24 22 19 18 16 18 16 18 19 21 22 22 24 25 24 25 24 24 20 19 21 22 22 21 17 22 21 19 21 17 18 15 17 16 17 17 18 18 18
16 15 11 10 14 16 19 16 16 19 21 18 20 22 21 16 18 20 14 16 21 20 22 24 27 26 23 22 23 20 15 16 15 16 18 20 21 21 19 20 21 21 20 22 23 22 23 25 24 23 18 16 17 18 17 17 18 18 19 19 22 23 23 20 19 19 15 16 17 18 18 21 20 19 22 22 19 20 19 18 17 18 18 18 18 18
17 14 12 16 15 15 17 18 18 18 19 19 18 20 18 15 19 18 17 18 23 26 26 24 30 29 22 25 24 20 23 18 16 17 20 21 20 19 20 21 21 20 19 20 22 22 22 23 24 25 21 18 17 16 18 20 19 16 17 18 21 21 13 14 17 17 16 18 19 21 21 24 22 21 21 22 21 22 19 21 17 19 21 19 17 18
13 15 16 18 16 16 16 17 12 15 18 17 15 14 16 19 17 17 19 21 23 24 20 25 30 28 22 25 23 22 21 18 18 21 20 21 21 21 23 23 23 22 21 19 20 20 22 23 25 24 26 22 19 19 15 18 20 19 18 17 18 17 19 18 19 20 16 17 19 19 19 18 19 19 18 17 20 22 19 17 18 17 17 19 18 18
16 14 16 15 16 17 19 17 15 18 20 21 15 13 14 17 18 19 21 23 25 18 22 20 29 30 27 23 21 24 22 21 18 21 29 31 20 21 21 22 21 22 20 21 20 20 20 21 20 22 22 21 23 20 18 15 16 17 17 16 19 19 16 17 19 22 19 19 20 20 17 17 18 18 20 20 21 22 17 17 19 17 17 18 18 18
16 12 14 14 14 18 17 16 12 14 21 17 13 15 17 18 19 20 22 24 24 24 28 28 24 33 30 21 24 22 23 24 23 18 21 24 20 19 19 20 21 20 19 19 20 19 19 21 22 21 21 21 21 22 20 20 19 16 14 15 17 16 14 13 16 17 18 16 17 17 17 17 16 21 21 17 18 18 14 15 16 18 20 19 18 19
12 14 13 14 16 16 15 16 15 16 21 13 15 15 19 20 21 21 25 25 24 26 27 24 25 32 27 22 23 27 22 19 17 21 17 18 18 18 18 17 18 19 18 19 19 18 19 18 18 19 20 23 22 20 21 21 19 16 15 20 19 15 14 17 14 14 16 15 18 18 17 19 23 19 16 17 18 18 15 15 15 13 18 20 19 18
15 12 15 18 17 14 14 14 15 16 20 17 15 19 22 22 22 22 25 27 25 30 30 25 23 27 28 20 17 19 17 17 25 17 14 16 17 17 16 16 18 18 18 17 17 17 17 17 17 17 20 21 20 20 19 20 20 19 17 20 18 15 15 13 16 15 15 16 17 18 18 20 20 20 20 21 19 16 15 15 17 16 14 20 22 22
23 25 19 20 14 18 14 20 17 16 17 18 24 23 21 24 21 22 24 25 29 29 21 22 23 23 34 21 21 19 16 14 15 13 15 15 17 19 17 16 16 17 17 17 18 18 18 19 19 18 20 21 22 22 22 21 20 19 18 19 21 18 14 14 15 16 17 14 17 17 19 20 20 22 23 27 27 26 22 19 18 17 19 20 22 21
21 24 23 25 18 16 20 20 19 18 19 22 22 24 23 20 19 25 24 28 29 26 16 18 20 29 25 18 21 18 17 13 11 13 14 14 17 18 18 16 16 16 16 18 19 18 19 20 20 20 19 19 20 20 19 19 18 20 19 13 14 14 12 12 14 17 18 18 18 18 19 18 18 21 22 23 23 21 21 20 18 18 17 16 19 21
19 29 23 19 23 17 16 19 16 21 21 21 24 22 22 24 22 23 24 25 25 23 22 23 18 29 23 19 18 19 15 14 12 12 12 11 14 16 16 16 17 17 17 17 17 18 18 19 18 18 19 19 18 18 20 18 18 16 17 18 19 14 12 11 12 13 17 17 18 18 18 18 16 17 18 20 20 20 19 19 21 20 21 22 20 19
12 15 22 22 16 18 18 17 15 18 17 26 25 23 21 23 23 20 21 24 22 24 19 14 19 20 21 19 15 18 13 13 12 11 11 11 11 11 14 16 17 16 16 15 17 18 18 18 17 17 18 18 18 18 19 19 18 16 17 16 15 15 14 15 14 10 13 14 16 18 16 16 17 17 17 19 19 18 18 19 21 21 19 19 19 21
18 24 20 23 16 19 19 14 15 18 21 22 24 26 26 23 19 25 18 23 23 22 23 21 22 22 19 21 16 16 13 13 12 12 11 11 9 10 13 14 15 17 17 17 16 16 17 17 16 16 16 17 17 17 18 18 18 17 16 15 14 13 12 12 12 12 14 12 8 8 9 11 15 17 17 18 20 20 17 17 20 21 19 21 18 19
19 11 22 24 15 17 15 12 14 16 18 18 22 25 21 20 22 19 20 23 20 21 28 18 24 24 21 17 16 16 13 14 14 14 11 10 10 10 11 13 14 16 17 17 17 16 16 16 16 16 16 15 16 16 17 17 17 17 17 16 16 15 13 12 12 12 7 7 7 7 8 10 11 14 16 17 17 20 21 21 18 19 20 20 20 19
19 19 27 29 17 14 12 13 16 15 20 23 22 19 27 29 25 25 21 13 16 21 20 19 21 20 21 17 19 16 16 14 13 11 11 10 10 10 11 11 12 13 14 14 15 14 14 14 15 15 15 15 16 15 15 16 15 15 15 15 16 16 16 14 13 12 12 10 8 7 6 9 13 15 16 16 16 15 16 19 20 22 19 20 20 20
16 21 15 13 14 14 13 15 20 20 18 25 21 24 26 16 19 21 22 19 17 19 20 17 21 22 20 14 16 19 18 16 14 11 11 10 10 10 10 11 11 12 13 15 15 14 14 14 14 15 14 14 15 16 14 15 15 15 14 15 15 16 16 15 15 14 13 10 10 10 8 10 10 12 12 12 15 14 14 19 17 21 19 17 17 18
13 16 17 15 20 20 20 17 16 15 18 22 22 26 24 26 24 20 16 22 22 17 14 12 17 15 19 14 19 18 17 17 15 13 10 10 9 9 10 11 11 13 13 14 13 14 15 15 14 14 13 14 15 14 13 14 14 15 15 15 14 15 15 15 15 15 14 14 12 11 9 9 11 12 12 12 16 20 19 16 17 17 19 20 18 18
13 12 16 16 20 19 17 13 15 20 19 21 24 25 23 26 26 27 22 25 20 16 18 18 15 16 17 15 16 17 19 19 17 14 13 11 10 8 9 11 11 12 12 13 13 13 16 16 15 15 13 14 13 13 12 13 13 13 14 15 16 15 15 15 15 14 14 13 14 12 11 9 9 9 12 12 11 13 15 15 17 17 16 18 19 20
13 15 17 18 17 19 15 17 19 20 17 15 21 19 21 20 19 22 23 20 21 21 19 16 15 17 13 16 22 26 21 17 15 13 13 12 11 9 8 9 10 10 10 11 11 13 14 16 16 17 16 16 14 13 13 13 12 12 12 15 17 17 18 16 16 15 14 13 13 12 12 11 11 10 9 9 10 10 11 11 13 14 15 16 17 19
18 19 19 17 21 22 17 21 12 13 13 14 16 17 21 25 23 18 18 16 25 23 27 22 16 12 13 14 20 17 16 16 15 14 13 13 12 11 9 9 8 9 10 10 11 13 14 14 14 16 16 15 15 14 13 12 13 13 12 14 13 16 17 17 16 16 15 14 14 13 13 12 13 12 11 9 9 9 10 11 15 15 15 16 16 17
13 19 16 17 16 16 14 13 12 12 12 14 16 18 19 20 19 22 21 16 18 18 20 17 14 11 13 13 16 15 15 17 16 15 14 14 13 12 11 8 10 9 9 9 11 11 12 12 13 15 14 16 15 14 14 13 13 13 13 14 14 15 16 16 17 17 16 15 14 14 13 13 13 13 14 14 13 13 11 13 12 13 14 14 15 16
15 12 18 17 16 15 14 15 16 24 19 12 10 11 13 17 19 18 21 21 20 15 24 17 17 10 16 16 16 16 17 17 17 16 16 16 15 14 13 13 10 8 9 10 10 10 10 12 13 15 15 15 16 15 14 15 14 14 15 14 15 15 15 16 16 16 16 15 14 14 14 13 12 13 13 13 12 12 12 11 12 14 13 12 13 14
16 14 16 15 15 16 17 16 15 11 12 10 9 11 12 14 12 15 14 14 17 21 24 19 13 16 17 18 18 18 18 17 18 18 18 19 14 14 12 12 9 8 10 10 10 10 11 12 14 14 14 15 15 16 16 16 16 15 15 14 13 16 15 16 16 15 15 15 16 14 14 13 13 12 13 13 12 12 12 12 12 14 13 14 16 13
15 14 13 13 15 15 14 12 11 12 13 10 9 11 12 12 13 15 16 17 17 21 19 19 17 16 18 20 19 20 19 19 19 18 21 19 15 14 13 13 12 10 9 10 10 11 11 12 13 14 14 15 15 14 14 15 16 16 15 15 15 16 15 15 15 16 14 14 13 15 15 14 13 13 13 13 13 12 13 13 12 13 15 14 14 14
15 14 10 11 11 13 11 11 10 10 10 11 12 11 12 13 12 15 15 15 17 19 12 22 16 15 15 19 19 21 19 20 18 17 22 18 17 17 17 16 15 13 13 12 12 11 12 12 13 13 14 14 15 15 14 15 15 15 15 15 16 16 15 15 15 15 15 15 15 15 15 15 14 14 13 14 13 13 13 13 13 13 13 13 14 14
15 13 11 11 12 11 11 11 8 10 10 11 11 12 13 13 13 15 15 16 16 15 13 14 20 17 20 24 21 21 20 22 22 19 21 16 15 12 12 12 12 13 13 11 10 11 12 12 13 13 14 15 14 15 15 16 16 15 15 16 16 16 16 15 15 14 15 14 15 14 14 13 14 13 13 13 14 14 14 14 13 13 14 13 13 13
15 14 12 12 14 14 12 12 10 11 10 11 11 12 12 13 13 14 15 14 15 17 16 16 15 13 16 16 21 19 17 21 23 17 16 15 15 13 12 11 13 17 11 10 10 11 12 12 12 12 12 13 15 16 16 16 17 17 17 16 16 16 16 16 15 15 14 14 14 14 15 14 13 14 13 13 14 14 14 14 14 14 14 14 14 14
15 8 8 13 15 15 12 11 11 12 11 13 11 12 11 11 12 13 15 14 14 16 16 14 14 15 17 19 20 20 17 20 20 16 15 15 14 12 12 13 10 11 11 11 10 11 12 13 13 13 13 13 14 14 15 16 16 17 17 17 16 17 17 17 16 15 15 15 15 14 14 14 14 14 14 13 13 13 14 15 14 15 15 15 14 14
14 14 13 12 13 15 13 12 13 11 13 14 11 10 9 10 12 11 12 13 13 13 11 10 14 16 16 15 16 15 14 15 14 13 13 13 12 12 12 11 10 9 9 11 10 10 11 13 13 14 13 13 13 14 15 15 16 17 17 17 17 17 17 16 16 16 16 15 15 15 16 15 15 14 14 14 14 14 15 14 14 15 15 15 15 15
13 16 13 10 15 14 9 13 11 11 12 14 10 9 8 9 10 10 11 9 12 10 7 11 12 19 16 14 14 14 14 14 13 15 15 14 12 13 12 11 10 9 9 9 10 10 11 12 12 13 13 13 15 15 16 16 17 17 17 17 16 16 16 16 16 16 16 16 16 16 15 16 16 15 15 15 15 15 15 15 16 15 16 17 16 17
13 14 16 12 14 14 12 11 12 15 14 10 15 7 8 8 8 11 11 11 12 14 13 14 15 13 12 13 13 13 13 13 11 10 10 12 13 12 11 12 10 10 9 9 10 10 9 11 13 13 13 13 14 14 14 16 15 15 14 16 15 15 16 16 15 15 17 16 17 17 16 16 16 15 14 15 15 15 16 17 17 17 17 18 18 19
12 12 15 14 15 15 11 12 13 16 11 13 10 8 8 9 10 12 12 13 11 14 15 14 12 10 13 13 12 11 9 9 11 13 14 12 11 12 12 11 11 9 10 9 10 10 9 10 9 11 12 13 13 12 13 14 16 14 16 15 16 16 16 16 15 15 16 16 17 17 17 17 16 15 15 16 16 16 17 17 18 18 18 19 18 19
11 13 14 17 15 15 17 12 15 11 13 11 9 7 8 9 11 11 14 15 14 15 15 16 13 13 14 13 16 12 9 10 11 12 12 13 12 12 13 13 9 9 10 9 9 8 10 10 10 10 11 11 13 14 15 15 13 15 16 15 16 17 16 16 16 17 17 18 17 18 18 17 17 16 16 17 17 17 17 17 17 18 18 19 19 20
15 16 13 16 12 15 11 13 17 12 12 12 11 11 17 11 11 10 12 16 13 14 15 16 14 16 15 14 17 14 10 10 14 17 15 14 15 12 14 12 10 9 9 8 8 10 9 11 10 10 10 11 13 14 14 14 14 15 15 15 15 16 16 16 16 18 17 18 19 19 18 18 18 18 18 18 18 18 18 18 18 17 18 19 19 20
17 18 10 14 14 15 15 15 16 11 13 13 10 11 12 8 10 9 15 17 13 12 14 16 16 15 15 14 15 12 12 18 20 19 24 19 17 14 14 12 10 10 9 10 8 10 14 12 10 9 11 12 12 12 13 14 14 15 15 15 15 16 15 15 17 17 17 18 18 18 17 18 18 18 19 19 19 20 19 19 18 18 18 19 20 20
17 17 15 14 15 15 15 17 15 12 13 15 15 12 12 11 9 9 13 15 18 11 12 16 17 16 17 17 16 13 15 15 17 20 26 20 17 15 13 12 14 12 13 12 13 12 16 12 10 11 11 11 12 12 11 12 12 14 15 15 16 15 15 16 17 17 18 18 17 17 16 16 16 17 18 19 18 19 19 19 18 17 16 17 17 18
19 18 16 17 13 17 16 17 17 8 14 16 15 13 15 12 9 15 16 13 13 12 10 14 17 17 18 17 17 16 17 12 21 24 20 19 17 17 13 14 12 13 13 16 11 13 15 14 17 16 11 11 11 11 11 11 13 12 13 15 14 14 15 16 16 18 17 17 16 15 15 14 15 17 18 19 19 19 18 17 17 16 16 16 17 17
20 18 19 19 18 17 14 19 19 17 13 15 13 14 15 12 11 14 10 16 13 10 11 13 16 17 17 17 17 18 18 16 20 19 15 18 18 16 13 14 11 13 12 13 18 10 14 16 13 14 12 11 10 11 12 13 13 14 13 14 13 14 15 15 16 17 17 16 16 16 16 15 15 17 17 17 18 18 18 17 16 16 16 16 16 16
20 18 17 16 20 20 15 19 18 14 15 14 15 15 18 16 12 8 19 9 12 12 9 12 14 16 16 17 17 16 21 20 15 14 16 14 14 16 14 15 13 13 18 19 16 10 12 13 10 10 14 12 12 10 11 11 14 14 14 14 13 13 14 15 16 17 17 17 17 16 16 15 15 16 16 17 18 18 18 17 16 16 16 16 16 17
18 19 19 20 21 21 16 20 17 20 10 13 20 16 14 12 14 15 14 14 10 12 11 12 13 15 16 17 15 19 18 17 13 12 13 17 19 17 15 16 18 15 15 10 11 14 14 12 11 12 10 11 9 11 11 12 13 14 14 15 12 14 15 15 15 17 17 16 16 15 15 14 14 16 16 17 17 17 17 17 17 16 15 15 16 16
13 20 18 20 21 19 17 21 18 16 25 22 22 13 24 22 16 12 17 16 12 11 12 16 13 14 16 15 16 16 18 17 11 12 14 16 17 15 13 15 10 13 10 11 15 20 14 11 9 10 9 10 10 11 12 11 14 14 15 13 12 13 13 13 15 15 16 14 14 14 14 14 13 15 15 16 16 16 17 18 18 16 16 16 16 16
19 23 15 14 14 20 16 12 17 14 18 24 20 14 10 15 11 9 12 14 14 14 10 14 17 14 16 14 13 15 18 14 12 14 14 15 14 13 13 13 12 11 10 8 12 12 11 11 9 11 9 10 8 9 11 11 12 13 13 12 12 14 13 13 14 14 15 14 14 13 14 13 14 14 14 15 15 16 17 17 18 18 17 16 17 17
12 17 11 17 22 17 22 22 13 13 15 17 19 14 11 11 12 11 12 13 12 13 13 17 17 15 15 15 15 15 14 14 13 15 14 14 15 14 14 13 13 11 10 10 10 10 12 12 13 9 10 10 9 10 10 11 12 12 12 12 12 13 13 13 14 14 15 14 14 14 15 14 13 13 13 14 15 14 15 16 16 17 17 17 17 17
18 17 19 21 12 11 19 14 16 15 14 15 18 17 15 13 14 15 15 15 14 12 12 10 12 14 15 15 17 14 15 13 15 14 14 14 15 13 14 14 12 12 11 11 10 10 12 13 16 15 11 12 10 12 13 10 12 11 11 12 13 13 12 13 13 14 14 13 13 12 13 13 15 15 11 12 14 14 14 15 16 16 15 15 16 17
22 20 19 19 18 20 18 11 12 9 10 11 15 16 18 20 19 16 16 14 15 13 13 13 12 13 14 16 16 17 14 15 14 15 15 15 14 14 14 14 12 12 12 11 10 12 13 13 14 13 12 13 11 11 11 12 12 11 12 13 13 12 12 12 12 14 14 13 12 12 13 13 7 11 12 12 12 13 13 14 15 15 15 16 16 17
21 16 16 13 23 21 20 21 20 16 18 18 17 16 15 15 18 20 18 17 15 15 15 15 14 16 18 14 18 17 15 15 15 14 15 14 15 14 13 13 13 12 12 11 12 14 16 14 14 13 13 13 12 11 12 11 11 10 9 11 12 11 12 12 11 13 13 13 12 10 12 13 12 12 12 12 11 10 13 15 15 15 15 12 14 14
19 24 18 18 19 17 18 15 13 18 16 18 20 21 17 16 14 17 20 19 19 18 18 18 17 15 15 15 21 19 16 16 16 15 15 16 15 14 14 15 15 14 13 12 12 13 15 15 15 14 14 14 11 12 14 10 12 9 11 11 11 11 11 12 13 13 13 12 11 11 13 13 12 11 12 12 13 13 11 9 6 8 12 14 11 10
24 22 23 22 18 18 15 15 13 15 18 19 11 12 12 11 13 16 21 22 21 20 19 18 18 18 17 16 15 16 21 15 15 16 16 16 15 14 14 13 13 14 13 13 14 15 16 15 16 15 15 14 12 12 12 13 11 12 10 10 10 10 12 12 13 13 13 10 11 12 14 14 12 12 13 13 12 13 14 14 17 13 9 7 12 12
Wind_Speed
5 8 7 8 8 6 4 8 7 8 10 10 8 9 7 9 7 8 11 5 6 6 6 6 8 10 4 4 1 3 3 4 2 6 3 6 6 7 8 8 8 8 8 6 4 6 10 12 6 4 5 5 4 5 7 8 7 7 6 2 4 5 5 6 6 8 9 10 7 4 4 2 3 1 3 4 7 4 5 7 9 8 7 6 7 6
2 6 8 9 8 8 8 8 9 7 6 8 8 8 8 8 9 7 8 11 10 5 7 12 14 9 6 5 4 5 1 4 3 4 3 6 7 6 7 9 9 8 8 9 7 7 8 9 11 5 3 2 4 3 5 6 6 4 6 6 4 6 4 2 3 5 6 6 5 3 1 3 1 2 2 3 5 9 5 5 9 7 7 7 7 7
7 8 7 4 2 5 7 7 8 9 9 9 8 8 9 9 9 6 9 2 4 2 6 11 11 8 6 7 7 4 6 5 2 3 3 6 5 6 7 9 10 9 9 8 8 9 8 10 11 8 5 4 4 5 5 4 4 2 4 1 2 4 2 3 2 3 6 3 5 4 4 3 2 3 1 1 3 8 9 4 8 7 6 6 6 7
7 5 9 7 5 5 8 8 9 9 8 8 7 7 7 7 6 6 6 9 3 4 8 9 12 9 7 7 8 6 5 5 4 5 7 5 4 6 7 8 9 9 7 8 9 8 8 9 9 9 9 7 6 6 6 6 2 2 2 2 3 1 3 6 6 5 6 9 7 7 7 7 7 2 3 1 4 10 8 6 7 6 6 8 7 7
6 3 3 2 4 7 11 8 8 7 7 8 9 8 8 8 5 6 5 4 11 11 8 12 12 10 7 9 8 9 6 6 7 5 4 4 6 7 9 9 9 7 7 8 9 8 9 10 10 10 9 8 8 6 5 3 2 2 1 2 7 5 5 5 5 6 6 5 5 5 4 3 3 3 1 1 4 7 11 6 6 7 6 9 8 8
7 0 5 8 8 7 8 8 8 8 8 7 7 9 10 8 8 9 10 8 6 8 8 10 9 9 8 10 12 7 6 7 7 4 2 3 5 5 7 8 8 7 8 9 9 10 10 11 10 10 10 9 7 7 5 3 1 0 1 1 6 6 6 6 8 5 3 4 4 6 6 6 4 4 6 6 7 10 10 8 7 9 8 8 8 8
5 4 4 6 8 9 9 8 6 4 6 7 2 6 7 11 10 9 10 9 8 9 5 10 11 7 7 11 8 9 11 4 10 12 4 3 6 7 8 7 7 6 7 8 9 9 10 10 11 11 10 10 10 8 6 5 4 3 2 1 5 5 5 2 4 6 6 6 5 7 8 8 6 5 1 2 7 11 9 6 8 8 8 9 8 7
7 6 7 9 8 8 6 7 4 6 7 8 4 6 7 7 9 11 11 10 9 8 10 10 9 9 8 6 6 15 11 9 8 10 15 18 6 8 8 8 7 6 6 7 9 9 9 10 11 11 11 10 10 7 6 5 6 5 5 8 6 3 3 3 3 2 5 5 4 3 4 5 8 8 9 11 10 11 7 6 7 6 7 8 7 6
6 4 4 5 7 7 6 5 4 7 7 4 5 7 9 8 10 11 9 9 9 8 10 9 10 7 7 3 5 8 9 7 8 8 7 11 8 7 7 6 7 6 6 8 9 9 9 10 11 11 11 9 10 9 5 4 3 4 4 4 6 6 1 4 3 4 4 4 5 5 6 5 7 11 11 7 7 7 8 6 7 6 7 7 7 7
4 3 6 7 6 5 6 8 7 8 9 3 7 7 6 10 11 11 9 9 10 10 9 10 8 8 6 10 5 6 8 6 7 8 8 5 2 5 4 4 4 5 6 8 8 9 9 10 9 9 10 11 9 7 5 4 3 5 4 4 8 7 2 1 3 3 4 3 7 7 8 11 9 5 6 7 8 10 10 6 7 6 7 7 7 8
7 4 7 8 7 6 7 6 8 8 10 9 8 7 9 9 9 9 8 9 8 9 10 10 11 5 6 2 4 6 3 7 7 5 5 3 4 2 2 3 5 4 5 6 7 8 9 9 9 10 12 8 9 7 7 5 3 2 4 3 6 6 2 2 2 3 4 2 6 7 7 6 5 7 7 6 7 8 6 6 7 6 6 4 4 4
12 15 6 5 8 8 6 10 9 9 7 8 7 8 8 9 8 9 8 8 7 8 8 8 10 9 8 3 1 2 6 8 7 6 5 4 1 3 2 2 4 4 5 5 7 8 9 9 10 10 10 9 8 8 6 5 6 5 1 3 4 5 3 3 3 3 3 3 7 5 4 6 5 5 5 5 6 3 2 1 1 3 2 0 1 2
7 5 10 11 11 7 10 10 8 8 7 7 8 8 9 5 3 6 7 8 6 7 4 6 8 9 5 6 4 4 5 6 6 4 2 2 1 3 3 3 4 4 5 5 6 6 8 8 8 9 9 7 7 8 7 5 5 6 6 2 2 3 1 2 1 4 3 5 3 4 6 1 5 6 6 3 2 2 2 2 4 3 1 0 2 2
4 8 10 8 13 6 8 8 4 4 5 7 7 6 6 5 6 7 4 3 5 7 5 9 9 6 5 2 2 5 5 4 4 4 1 2 2 1 2 1 4 5 5 5 4 5 7 7 7 7 7 7 5 7 6 5 5 5 5 5 4 2 3 3 3 2 3 4 5 6 3 3 6 5 4 5 1 1 2 3 3 1 2 3 4 2
3 5 5 11 5 7 7 7 5 6 6 5 4 2 4 4 5 5 1 3 5 4 6 4 3 1 3 5 7 5 3 4 4 3 3 2 2 2 2 4 4 4 5 4 4 5 6 6 6 6 5 5 4 5 5 6 5 4 4 3 3 4 4 5 5 3 1 3 4 3 2 6 4 1 1 6 2 3 3 3 2 1 2 2 1 1
5 2 4 11 7 5 8 3 4 7 7 4 2 7 8 3 4 4 2 7 5 3 6 3 1 2 2 2 6 5 6 4 3 5 4 4 3 1 1 2 3 3 4 4 4 4 5 5 5 4 3 3 4 5 4 5 3 3 3 4 3 4 4 5 4 4 5 2 2 3 1 5 8 5 5 4 1 0 1 3 3 3 2 1 3 4
4 2 3 11 10 8 7 4 5 5 4 4 3 5 8 3 2 3 5 8 6 5 8 3 6 5 6 3 5 6 6 6 6 6 5 4 2 2 1 1 3 4 2 3 4 4 4 4 5 4 3 3 3 4 4 5 4 4 3 3 3 4 3 4 3 4 4 3 3 3 4 4 3 4 4 3 3 2 1 2 3 4 3 3 3 2
6 3 9 10 9 0 5 5 7 6 6 7 7 3 5 4 7 6 3 1 4 6 3 6 6 6 6 2 1 2 4 6 7 6 5 3 3 3 2 2 3 4 5 4 5 4 4 3 3 4 2 3 3 4 4 4 3 3 3 4 4 4 3 3 3 3 3 4 3 4 4 2 2 1 4 4 2 2 2 3 3 3 3 3 4 3
5 6 4 8 6 8 5 7 8 5 5 7 5 1 5 1 4 6 2 7 7 6 4 8 7 6 3 2 3 8 10 9 7 6 5 4 4 3 3 3 4 5 4 4 4 4 3 3 3 1 4 4 2 3 4 5 3 4 3 3 3 5 4 3 3 3 3 3 3 2 2 3 3 3 3 3 3 2 2 3 4 4 4 3 3 3
2 4 2 4 2 4 7 4 3 4 5 3 6 7 5 7 7 5 1 6 6 6 5 2 1 0 3 2 10 9 8 8 7 6 5 5 3 3 3 4 3 4 4 3 3 3 3 3 4 3 3 3 3 3 2 3 4 4 3 4 4 2 3 4 4 3 5 5 4 3 2 3 3 1 1 1 1 3 4 4 4 4 4 3 3 2
4 3 4 1 3 4 2 2 3 2 2 4 3 5 3 7 2 1 1 4 5 3 4 7 4 2 1 2 1 8 4 7 8 7 6 5 5 3 4 3 4 3 3 3 4 4 4 4 4 4 4 4 2 1 2 2 3 5 3 4 4 6 5 4 3 4 5 5 6 4 3 3 4 3 2 2 2 4 6 4 2 2 3 0 3 3
3 4 5 7 4 2 4 5 1 5 7 3 2 2 5 0 1 4 3 1 3 3 5 5 3 3 5 3 4 8 11 8 7 7 7 7 5 4 2 3 2 3 3 4 4 3 3 4 4 5 6 5 4 3 4 3 1 3 5 4 6 7 6 5 5 4 4 4 4 5 5 6 5 3 3 5 5 3 3 3 5 6 6 6 5 5
4 4 6 6 4 7 10 13 5 5 4 6 4 5 8 2 4 2 4 0 3 4 7 6 6 1 2 5 10 9 8 8 7 8 7 7 6 5 1 0 1 2 3 4 4 2 2 3 3 3 6 6 5 3 3 2 3 2 4 6 3 5 3 4 3 3 3 4 4 4 4 4 5 6 7 3 3 2 5 7 9 7 5 7 7 5
3 2 4 6 6 7 4 5 4 6 7 5 3 3 3 2 3 3 1 3 6 2 2 4 4 2 4 3 5 6 7 7 7 7 8 7 6 5 2 1 1 2 2 3 3 2 1 1 2 3 2 7 4 3 1 1 4 5 4 2 3 6 5 4 4 4 4 3 3 4 5 4 3 4 5 5 4 6 4 2 3 1 5 10 8 7
3 1 6 6 4 3 3 4 5 6 8 3 2 2 1 4 4 5 6 9 7 2 2 3 6 0 4 4 5 5 6 8 8 8 8 8 6 5 3 2 1 1 1 3 3 3 3 4 5 5 4 4 3 6 3 5 3 4 3 5 7 6 4 4 3 3 4 4 3 4 3 3 3 3 3 3 2 3 4 4 3 3 6 4 3 2
5 5 5 5 6 6 6 6 5 3 4 3 1 3 4 5 4 3 2 5 5 2 6 3 0 1 4 6 6 6 7 8 8 8 9 8 8 7 5 4 1 1 1 2 3 3 4 4 4 4 4 3 3 3 4 6 4 4 4 6 4 5 4 4 3 4 2 3 3 3 4 3 3 3 3 3 3 4 4 2 3 4 4 5 5 6
3 5 5 4 4 4 4 4 3 4 5 3 3 3 4 2 5 4 3 3 2 4 3 3 3 2 1 6 8 9 9 9 9 10 10 9 8 8 7 6 5 3 3 2 2 2 2 3 4 3 4 3 3 3 2 5 1 8 6 5 4 4 3 5 4 3 4 3 2 2 3 3 4 3 3 3 3 3 3 4 3 4 5 3 4 5
5 5 4 5 5 6 4 5 3 3 5 4 5 4 5 5 3 5 3 2 7 5 2 2 5 2 7 11 8 9 11 9 10 9 10 9 9 10 9 9 10 8 8 7 7 6 4 4 4 3 1 2 2 3 3 5 3 6 3 4 4 4 3 2 3 5 5 4 3 3 2 5 2 2 2 2 2 4 4 4 5 5 4 4 4 3
4 4 5 5 7 5 6 6 3 4 4 5 5 3 5 4 5 6 4 6 5 3 3 5 9 7 7 5 9 10 11 10 9 10 12 9 8 7 7 7 7 8 8 6 5 5 5 4 4 3 1 0 2 1 1 4 3 5 4 4 5 4 4 4 4 4 4 4 3 3 3 3 2 1 2 3 2 3 3 2 2 3 4 4 5 3
4 5 6 5 8 8 7 7 5 5 4 4 5 4 3 5 5 5 6 6 6 6 6 7 4 4 7 5 3 4 5 8 8 7 9 8 9 8 7 6 8 10 6 6 5 4 6 4 3 4 5 3 3 2 3 4 5 5 4 4 4 4 4 3 2 3 3 4 3 3 4 3 2 3 4 3 2 3 2 3 3 2 2 3 4 5
2 0 1 6 7 8 7 5 6 7 6 6 4 5 4 4 4 3 4 6 6 7 5 5 5 1 7 7 9 11 10 11 10 9 9 9 8 6 6 5 5 6 7 6 4 3 5 5 3 1 3 6 5 2 4 3 3 4 5 3 4 4 3 4 3 3 3 4 4 4 4 3 3 3 5 3 3 3 3 3 2 3 5 5 5 5
3 5 5 5 5 6 6 4 7 6 6 7 5 4 4 1 4 3 3 4 4 5 5 4 3 6 6 8 7 7 8 9 9 8 7 7 7 7 6 6 6 3 3 7 6 5 4 5 6 1 3 3 4 1 4 2 3 3 5 3 4 4 3 2 3 4 4 4 4 5 5 4 4 4 4 4 4 4 3 2 2 5 5 4 4 4
5 5 4 3 4 6 3 3 6 5 5 6 5 4 1 1 2 3 4 3 2 4 2 3 6 8 7 7 7 7 7 6 8 8 9 7 6 6 5 6 5 5 3 4 6 5 4 3 6 6 3 3 1 1 3 5 3 3 3 3 2 2 3 2 2 4 5 5 5 5 4 5 5 5 4 4 5 5 4 4 6 6 6 6 6 5
5 6 4 5 4 5 7 4 5 5 6 1 5 2 1 3 2 4 4 4 2 3 3 3 2 3 3 4 4 8 8 7 5 5 5 6 5 5 6 5 4 6 4 4 3 5 5 2 2 2 4 5 6 6 0 8 3 3 1 1 3 2 3 5 4 4 5 5 6 6 5 5 5 5 5 5 5 4 5 7 7 6 6 6 6 6
6 5 5 5 4 5 5 6 5 6 3 6 3 2 1 1 4 5 6 6 5 4 4 4 2 2 3 5 4 6 4 3 3 5 5 6 6 5 6 6 6 4 6 5 2 1 4 4 3 3 2 3 2 3 2 5 5 5 1 1 3 3 3 4 3 4 4 4 5 5 5 6 6 6 6 5 5 4 6 6 5 6 6 6 7 7
3 3 3 4 4 4 6 3 5 2 6 5 4 2 4 4 1 5 6 8 9 5 3 4 2 4 6 4 9 7 5 5 3 4 6 6 6 7 6 5 4 4 4 5 4 3 2 4 3 4 3 1 4 3 3 5 3 4 3 2 3 3 3 3 3 4 4 4 4 5 5 6 5 5 6 6 5 6 7 6 6 7 6 6 5 6
8 6 3 4 3 5 3 5 7 4 3 6 5 4 4 0 1 3 4 6 7 3 2 4 3 8 5 3 9 7 4 4 5 8 7 7 8 6 7 6 5 5 3 1 1 2 3 2 2 3 2 2 5 3 7 4 4 3 3 3 4 3 3 3 3 4 4 4 4 4 4 5 6 5 6 6 7 7 7 6 6 5 5 6 6 6
7 7 2 4 3 5 6 5 5 3 5 5 2 6 2 3 1 3 3 4 5 6 4 1 1 6 3 4 8 7 6 5 6 7 9 8 9 6 7 5 5 5 4 3 4 4 3 4 3 2 4 3 1 5 5 7 3 2 3 3 4 4 3 4 4 4 5 4 5 4 4 5 5 6 6 5 7 6 5 5 5 5 5 6 6 6
9 7 6 4 4 5 5 6 4 3 3 8 8 7 5 1 1 3 2 3 4 4 4 1 3 2 5 6 7 7 2 3 4 6 9 9 8 7 6 7 6 3 4 5 7 6 9 5 5 3 6 7 5 3 3 5 1 1 4 4 3 3 3 4 4 5 4 4 4 4 4 4 4 5 5 5 6 5 5 5 5 5 5 5 5 5
9 6 5 6 5 5 6 5 6 1 2 9 8 6 4 5 2 4 4 1 1 2 5 3 2 2 5 3 10 4 4 2 7 7 9 9 5 5 5 6 5 7 8 10 7 5 8 9 6 5 4 2 2 4 7 6 1 1 5 5 2 2 2 3 3 4 4 4 3 3 4 3 4 4 4 5 5 3 4 4 4 4 4 4 5 6
7 5 5 7 7 7 8 6 6 4 1 9 7 6 6 2 1 3 3 2 3 5 4 3 4 3 3 5 7 3 6 2 8 9 7 9 8 7 3 6 7 7 6 7 9 5 3 3 4 1 5 2 5 4 5 4 1 3 2 3 2 3 3 2 2 3 3 3 4 4 5 3 4 3 2 4 3 2 3 2 3 3 3 4 3 3
7 6 4 5 8 7 6 7 5 5 4 5 6 6 6 3 3 1 4 1 1 1 1 3 2 4 4 5 5 3 8 10 8 7 8 6 7 10 7 9 7 4 11 10 6 1 3 5 4 1 2 4 3 3 5 4 3 2 3 3 3 3 2 4 3 2 3 4 4 4 4 3 2 1 2 3 2 2 1 1 2 2 2 2 3 4
5 4 5 6 6 6 4 7 4 8 3 4 7 5 4 3 3 3 5 5 0 3 1 3 3 4 4 6 8 11 9 10 6 5 8 9 4 6 8 6 7 6 7 5 5 7 7 4 1 4 2 4 1 3 3 5 1 1 3 3 3 3 4 2 2 4 4 4 4 3 3 0 1 3 2 2 2 2 1 1 2 1 3 3 3 4
6 6 4 5 6 5 6 6 3 3 7 6 8 2 7 4 5 1 4 3 1 4 4 5 3 5 5 5 8 9 11 9 6 5 6 5 5 3 6 10 2 8 1 1 8 11 7 3 1 2 4 3 2 3 6 1 2 2 2 2 3 2 1 2 3 3 3 3 3 3 3 2 3 4 1 2 1 1 2 1 2 1 3 2 3 4
8 9 4 4 4 5 2 3 4 5 5 6 5 3 3 2 1 3 3 4 5 4 2 3 8 2 7 4 7 8 9 8 1 5 4 4 5 4 5 6 2 3 4 4 8 6 3 1 5 2 3 4 1 3 4 2 2 2 1 2 1 3 2 2 2 2 3 3 4 2 3 3 2 2 1 1 2 1 0 1 2 2 2 3 4 3
3 6 3 5 6 6 10 9 3 2 6 6 5 4 5 2 4 5 2 4 5 6 1 8 6 2 3 4 7 5 3 7 6 8 3 7 9 4 1 5 5 3 4 4 4 5 2 5 8 3 1 1 1 0 1 1 1 2 2 1 1 1 3 2 3 3 3 3 2 2 3 3 3 3 1 1 1 1 1 3 3 3 2 3 4 4
9 8 8 6 5 4 4 6 8 7 8 9 6 6 7 5 5 3 6 6 7 3 6 5 3 4 4 6 6 3 5 2 3 7 8 2 3 3 6 4 4 6 5 4 2 0 3 3 4 7 5 1 5 6 7 5 1 1 4 2 2 2 3 3 2 1 2 2 2 2 2 1 3 2 3 1 1 2 2 4 3 4 4 4 4 4
7 11 7 7 8 6 6 4 4 3 2 3 5 7 10 10 9 9 6 4 3 4 2 5 4 1 4 5 6 9 5 9 6 8 5 5 5 5 6 7 5 3 2 1 1 1 3 4 5 6 1 5 3 2 4 3 4 1 4 2 2 2 2 2 2 2 2 2 2 2 2 2 5 5 2 2 1 1 1 3 2 2 2 3 2 2
6 2 4 3 6 7 9 12 11 8 10 9 8 8 6 4 4 8 7 5 7 5 3 7 5 5 8 3 6 5 5 7 6 5 6 6 7 7 5 3 3 3 2 2 3 2 3 2 5 3 3 4 6 3 4 4 2 4 3 0 1 4 2 2 2 1 3 3 3 1 3 3 3 1 1 1 1 1 1 2 1 1 1 3 2 1
5 8 4 4 5 5 6 5 5 6 5 6 9 11 9 7 5 3 2 7 7 9 7 6 7 4 2 3 13 10 7 3 4 4 6 7 5 3 4 4 4 4 4 3 2 4 5 3 3 3 3 4 4 2 5 2 6 4 3 1 3 2 0 1 2 3 3 2 2 2 2 2 3 2 2 2 2 2 1 6 2 3 1 4 3 8
8 8 7 6 6 6 6 5 5 4 6 5 4 2 4 3 4 3 4 6 6 8 6 6 8 8 6 5 7 7 12 7 5 6 5 5 6 5 4 5 6 5 5 4 4 5 4 5 6 4 4 3 2 5 3 3 3 7 2 3 3 3 1 3 2 2 2 2 3 5 3 2 2 3 3 3 2 1 2 1 3 1 3 3 8 9
Wind_Direction
254 235 225 219 239 244 295 304 341 342 332 330 318 314 316 305 282 214 130 72 54 317 270 252 241 251 79 26 88 36 134 198 209 78 323 76 83 62 55 70 67 60 55 38 17 15 27 15 111 151 152 160 195 199 182 186 194 211 209 174 247 241 172 173 150 149 148 158 174 191 239 227 199 317 339 299 303 250 157 173 149 157 162 170 165 168
234 278 273 279 285 313 308 316 336 303 295 299 302 272 259 252 261 270 232 157 150 190 259 265 275 247 143 182 207 199 135 221 137 136 115 65 85 75 69 70 68 55 50 33 25 19 21 39 26 22 10 150 191 193 214 201 204 199 211 189 225 233 220 189 146 142 137 136 117 140 75 302 298 143 200 301 313 293 192 172 144 152 170 164 167 169
235 224 255 239 227 325 302 278 263 291 284 252 254 265 261 256 263 252 312 255 89 140 265 263 236 242 230 200 215 184 227 85 357 71 67 60 49 89 72 61 61 54 49 39 39 28 18 29 29 27 46 26 339 307 322 21 24 340 313 332 178 341 220 85 76 74 84 83 119 121 156 229 337 329 6 15 272 275 276 162 143 148 170 160 168 176
254 295 279 301 292 276 263 253 266 259 245 259 247 241 256 257 262 265 238 309 156 194 282 267 262 224 221 217 205 201 224 176 152 109 95 93 90 74 77 69 64 62 44 47 34 29 23 28 33 38 33 20 10 33 3 343 28 244 226 233 108 202 224 146 149 144 171 169 159 160 166 181 174 171 9 1 294 275 255 211 147 158 181 165 171 182
251 246 358 269 296 270 265 234 228 242 249 228 246 274 269 278 277 263 276 244 278 249 203 271 281 289 207 207 199 187 212 156 163 141 94 92 89 86 73 66 63 57 62 50 37 32 27 25 33 37 43 37 27 13 345 310 287 1 26 97 160 161 112 148 183 173 170 171 154 124 141 81 107 108 254 328 273 233 238 194 169 166 193 168 175 179
267 78 214 243 247 250 258 273 244 247 258 271 261 272 292 284 272 270 261 248 225 257 235 236 260 248 233 215 201 184 197 190 153 157 133 122 91 92 86 80 72 68 54 56 43 30 20 18 18 28 37 42 34 16 341 317 320 250 21 356 158 132 135 175 167 169 162 230 136 141 146 143 138 154 184 204 210 233 218 186 174 174 187 178 181 178
312 168 267 273 253 242 248 262 280 304 289 293 292 335 265 245 244 249 254 249 246 253 219 221 248 251 227 211 175 152 203 171 47 9 26 93 55 48 58 66 63 53 61 59 50 36 22 19 20 28 37 36 34 33 10 28 56 64 303 134 144 149 123 166 220 164 151 198 196 181 168 156 132 108 57 328 261 228 221 184 180 177 183 184 187 181
219 212 222 221 264 269 266 256 292 300 264 246 320 240 269 270 258 250 252 251 265 249 255 235 210 253 262 341 211 179 165 68 55 32 359 337 37 3 36 39 51 52 51 56 53 39 29 25 21 22 44 41 37 38 26 25 51 69 100 111 105 68 98 114 302 197 160 175 185 103 62 120 121 149 199 197 221 262 242 181 186 175 183 188 187 187
282 293 263 271 269 274 269 293 270 256 276 267 205 248 270 270 260 261 260 259 256 265 253 241 244 251 254 107 96 116 97 85 84 81 46 294 360 3 9 25 45 15 37 52 47 42 36 26 25 31 46 44 42 35 33 27 35 62 76 72 96 94 83 142 160 169 187 152 137 121 130 162 183 178 198 204 174 242 250 197 181 192 181 188 188 194
260 265 267 286 278 270 261 256 261 257 257 242 321 316 280 274 268 264 263 257 256 251 251 249 236 261 224 117 142 186 154 152 138 144 181 221 83 23 347 338 14 19 2 47 47 45 40 32 30 38 50 46 49 36 54 31 25 354 21 73 98 100 143 189 101 103 146 191 159 172 178 190 191 190 181 191 193 201 226 194 181 194 179 192 187 191
288 258 311 311 283 280 297 282 263 251 259 284 284 288 274 250 248 252 258 273 280 255 258 266 266 238 260 246 178 172 217 166 145 151 162 124 130 65 16 340 19 18 11 28 52 43 38 35 30 37 44 45 52 40 35 31 4 329 352 350 86 83 61 132 117 118 135 206 204 190 212 198 191 194 189 201 203 209 200 191 193 189 180 180 188 190
0 346 274 282 270 287 293 281 255 260 271 279 268 263 269 258 251 247 247 224 249 260 263 260 249 160 251 154 103 91 87 109 135 140 158 141 36 105 56 6 42 42 9 28 41 39 39 34 31 31 39 29 39 48 43 19 28 49 101 360 45 104 125 41 58 86 125 153 219 239 226 226 212 197 191 191 194 204 217 358 30 357 24 102 207 227
352 311 310 314 316 289 275 257 302 247 220 236 259 267 260 268 282 249 225 229 223 256 290 307 354 303 284 54 116 112 117 104 110 120 156 156 183 75 45 4 76 20 24 31 28 43 48 35 29 31 29 23 22 47 39 31 36 31 45 79 50 65 74 141 223 151 143 132 263 249 243 116 20 310 276 201 184 191 183 166 178 174 131 204 309 360
263 285 282 259 272 257 261 278 234 247 268 241 248 265 252 268 250 246 252 316 290 249 324 296 323 265 93 80 103 133 124 104 122 123 162 140 98 28 71 41 30 46 40 27 20 30 48 35 35 34 30 24 17 39 44 54 60 47 54 68 87 80 45 97 179 211 171 170 198 216 198 145 216 248 2 307 342 177 53 28 358 295 200 180 185 196
233 199 210 257 238 263 282 272 317 306 279 296 287 337 360 351 297 281 331 282 262 322 288 312 254 321 244 172 218 131 120 141 124 162 154 98 94 95 349 53 50 34 40 16 20 36 43 46 39 40 29 25 16 37 38 45 49 55 62 64 82 91 77 78 81 112 163 219 206 234 160 153 236 291 137 276 330 4 6 2 345 327 334 348 349 287
260 303 348 205 234 235 258 309 325 283 280 261 359 287 252 218 164 257 274 275 311 305 274 223 181 148 1 119 135 171 131 134 179 153 180 171 170 195 243 50 60 44 47 17 19 30 39 51 52 51 34 19 20 35 44 59 39 47 88 83 53 75 78 73 98 110 112 107 92 98 109 159 211 183 198 222 246 302 347 316 327 317 321 335 333 309
265 259 257 294 261 238 255 352 304 25 286 68 315 281 278 108 256 283 266 268 284 273 260 191 109 67 118 147 127 178 170 169 193 160 202 162 170 136 81 65 62 75 67 54 37 30 28 48 56 44 27 31 15 28 36 53 41 41 32 75 75 77 94 115 113 112 142 138 116 83 129 190 215 182 186 214 198 178 229 299 296 286 291 307 265 258
315 318 199 195 262 210 18 321 306 282 289 296 265 352 332 252 264 267 275 339 242 252 274 335 123 171 176 192 295 259 202 187 167 180 158 155 165 138 103 110 75 69 57 58 47 33 22 46 51 60 342 67 22 30 11 50 62 32 27 28 53 46 52 63 93 101 94 99 97 133 138 143 208 202 194 181 174 142 194 198 233 274 302 292 300 322
347 293 3 306 70 349 289 255 250 285 268 281 299 316 293 345 257 217 241 250 261 250 264 140 160 133 201 173 202 202 207 173 177 166 169 168 162 102 95 60 76 71 48 51 55 48 40 52 79 48 74 59 99 50 20 358 60 61 20 27 50 56 19 42 53 46 71 94 108 90 104 139 186 232 228 169 156 165 215 224 233 238 219 237 280 345
250 310 237 161 349 205 274 296 293 308 292 320 331 289 216 167 218 271 213 315 311 275 254 157 263 218 120 102 181 193 198 163 182 180 160 156 147 145 113 66 65 84 69 56 64 75 57 48 80 106 102 115 37 51 32 26 353 55 66 16 16 75 65 28 46 50 40 35 50 60 83 101 104 131 284 125 223 247 212 221 228 239 238 222 226 222
316 134 279 325 131 358 287 301 227 138 280 286 308 277 269 251 304 82 267 257 288 341 297 291 275 140 94 114 123 113 234 192 186 173 149 158 140 126 97 56 66 59 83 70 51 41 55 50 52 74 75 78 67 121 130 64 20 351 348 115 53 25 23 34 18 55 56 29 21 20 29 74 104 106 133 141 176 245 277 277 262 257 261 272 246 243
291 289 291 307 308 358 321 314 36 281 286 281 162 306 314 260 302 236 239 290 288 203 283 308 315 89 121 148 139 149 209 180 166 153 158 153 138 99 132 91 107 110 77 85 57 42 20 61 54 80 86 63 29 25 27 34 31 30 345 11 64 44 14 25 340 55 68 61 34 21 14 27 15 83 116 126 173 227 281 318 326 306 302 261 213 196
351 304 304 296 305 261 186 203 230 306 297 300 275 145 186 132 252 242 267 64 279 304 344 321 311 131 27 157 176 189 171 151 152 157 147 147 135 120 113 7 86 116 130 93 87 38 27 55 64 73 109 115 109 56 27 64 60 10 29 356 44 77 27 4 346 28 49 65 36 23 26 29 31 26 11 34 79 134 159 178 186 198 224 268 289 295
324 278 292 276 306 277 276 60 53 10 326 269 204 294 192 179 184 212 194 265 288 295 350 348 282 131 177 207 116 132 138 142 149 154 150 156 135 133 153 80 267 129 76 98 88 67 358 28 94 54 84 122 118 107 75 90 85 57 24 4 38 47 23 4 22 349 34 57 58 50 11 19 22 36 34 28 20 8 340 45 20 118 192 193 183 210
287 56 333 322 296 290 117 62 57 328 304 283 94 228 234 221 203 225 207 212 257 94 205 236 317 74 204 176 136 156 155 160 158 161 156 152 144 151 150 138 29 8 91 89 81 72 44 33 47 43 27 60 98 123 105 47 34 77 70 41 27 34 25 7 19 2 24 54 27 51 40 360 359 41 31 12 11 19 345 13 14 2 326 11 343 175
289 312 322 330 330 334 335 336 352 331 334 346 312 335 295 303 287 264 265 15 291 303 310 320 339 308 143 156 162 185 167 172 161 168 151 148 158 159 164 163 204 205 177 104 87 69 62 35 35 41 16 55 6 19 109 132 85 37 58 40 41 24 3 12 24 22 65 6 39 45 43 346 10 12 4 18 358 356 340 0 29 346 357 3 352 340
296 298 290 310 319 321 343 319 48 313 278 297 349 310 294 284 280 267 269 216 266 313 307 84 0 36 281 209 192 181 178 184 178 155 152 158 165 166 162 162 179 215 254 146 154 128 101 86 58 36 18 3 32 350 62 17 113 90 31 54 31 61 37 346 342 63 19 59 20 62 42 19 30 360 345 9 342 324 336 354 358 348 354 350 348 343
266 282 304 285 290 307 309 324 346 306 301 311 302 315 316 294 288 282 271 275 172 257 260 147 76 311 204 210 203 189 182 186 176 180 159 168 170 170 173 174 185 196 203 194 174 165 150 117 99 82 63 350 49 324 70 99 341 60 41 32 34 40 45 19 2 15 60 33 41 26 31 71 15 355 36 338 352 357 358 351 342 347 336 340 333 333
313 282 280 308 285 291 300 302 311 288 297 305 287 290 288 277 281 276 264 276 311 266 313 170 152 201 233 203 177 206 200 186 170 183 161 171 166 163 165 168 173 191 202 184 142 128 123 135 132 127 52 97 150 280 40 75 66 84 50 39 23 32 27 48 7 34 38 54 48 25 32 70 15 8 39 29 1 27 8 332 334 349 343 326 311 337
319 260 300 304 300 290 285 286 277 284 295 294 282 284 291 285 280 275 269 289 282 286 297 316 264 350 117 229 153 178 149 176 168 198 155 163 168 169 169 186 190 198 191 148 135 137 123 117 138 157 167 155 65 7 11 75 47 53 46 47 28 17 36 30 32 36 29 55 40 35 39 29 30 16 49 2 15 34 357 7 22 322 309 337 352 356
250 328 34 296 291 293 273 261 271 265 275 282 302 303 295 289 291 254 284 260 263 262 286 294 311 164 149 176 180 201 170 162 171 182 165 168 175 174 169 193 190 196 155 135 124 98 98 119 92 238 208 142 119 238 115 351 82 69 70 26 38 20 24 24 8 52 26 48 37 41 33 28 27 20 43 1 358 48 5 11 348 350 10 13 1 1
179 295 298 292 292 289 278 263 268 256 257 272 289 285 274 309 282 12 282 30 318 319 322 306 255 78 109 116 125 144 150 157 162 162 166 175 178 164 195 206 196 172 167 138 134 147 160 129 118 24 298 101 86 101 97 63 77 60 59 54 24 15 356 40 15 22 25 20 33 39 18 25 23 31 42 9 360 23 348 6 8 26 18 357 359 353
244 271 280 288 291 291 300 286 292 297 286 277 242 207 301 186 355 302 240 165 283 4 304 273 66 133 143 158 152 160 153 162 164 174 176 176 177 174 199 223 167 165 151 128 145 155 161 163 131 168 307 78 92 195 47 88 54 23 29 53 69 13 325 35 44 28 24 4 28 19 15 10 25 22 29 12 13 1 349 360 24 17 4 4 359 357
264 266 278 284 275 291 298 326 320 297 272 321 82 68 345 330 354 310 330 339 297 174 280 345 111 161 156 227 183 146 173 183 171 164 174 167 171 187 205 204 160 155 155 136 144 196 161 132 112 65 92 102 275 55 159 99 78 297 228 34 82 354 19 347 48 50 16 6 14 10 10 358 22 17 19 11 16 4 3 18 20 11 6 2 356 356
259 263 270 274 283 282 303 290 266 256 323 83 159 81 282 335 297 306 319 290 295 212 209 278 276 218 250 248 138 130 146 164 163 170 176 176 174 183 206 180 165 150 157 148 211 226 112 132 106 110 156 252 55 199 132 50 67 301 5 92 78 38 32 342 14 56 29 6 6 5 6 0 19 15 11 15 8 10 25 22 9 8 11 4 2 358
244 256 271 270 279 283 273 266 268 22 192 192 123 113 78 288 169 287 279 273 231 228 194 246 231 224 162 234 116 134 138 126 193 221 185 192 181 169 192 142 142 157 165 183 168 145 183 135 145 149 100 290 255 322 107 100 58 316 301 85 47 44 42 343 7 40 47 358 17 5 4 11 8 22 2 4 8 25 21 17 19 12 15 4 3 358
255 268 269 283 287 285 299 293 299 2 200 138 167 179 203 334 40 320 316 314 22 99 136 255 152 286 104 93 120 115 132 144 213 212 178 187 170 177 153 137 138 127 175 214 117 107 66 35 297 88 82 348 340 330 88 109 62 318 322 33 38 17 38 2 17 16 39 4 24 359 18 13 11 22 2 2 21 20 18 11 20 15 11 356 359 352
229 245 211 244 246 246 262 277 277 257 277 156 102 108 72 96 349 324 287 289 247 231 113 197 171 263 160 169 143 127 107 254 235 229 171 173 143 131 147 149 146 155 185 162 131 203 149 159 178 209 183 165 291 284 295 84 54 312 320 55 11 10 22 10 10 9 22 8 15 355 24 19 16 21 357 16 29 19 6 16 15 14 6 354 350 350
222 232 242 249 278 300 290 278 270 287 328 142 146 131 121 166 349 329 302 283 72 110 134 24 270 221 237 196 133 137 163 262 354 110 152 128 140 146 149 140 161 171 173 219 210 213 194 161 156 192 182 165 210 250 328 41 260 149 320 61 24 8 13 10 4 355 14 359 11 349 33 17 29 27 356 31 33 18 13 16 15 11 358 357 346 350
219 216 226 235 250 255 275 274 279 262 309 99 136 148 136 102 148 243 278 97 249 139 108 193 235 236 260 93 118 164 214 207 138 124 114 133 150 113 174 144 160 188 196 205 199 166 101 152 135 183 198 173 213 245 176 173 145 15 244 79 337 46 8 5 350 357 352 359 355 351 34 15 43 31 2 36 34 17 24 13 13 17 13 351 360 349
207 223 211 237 240 235 227 263 286 279 41 122 134 131 118 172 248 266 293 92 83 50 31 23 269 215 227 178 147 198 221 71 101 124 148 140 136 158 146 158 194 190 202 105 88 116 207 288 164 196 22 142 181 193 67 20 307 309 17 65 336 45 27 320 20 4 342 349 351 21 20 6 40 12 17 40 16 26 41 42 11 0 8 13 3 338
215 222 219 223 241 248 246 255 253 275 113 158 123 136 128 183 223 285 94 184 83 177 141 312 63 231 197 175 149 82 79 110 128 148 135 160 167 162 181 181 213 162 80 114 113 237 288 51 356 6 264 234 227 178 189 180 55 35 359 26 12 21 353 16 357 316 9 21 354 28 2 21 13 18 35 51 3 344 59 34 57 323 53 23 346 344
207 213 223 214 235 248 259 254 245 258 135 197 135 153 165 235 30 109 170 137 301 114 181 148 257 151 254 152 148 130 145 118 145 181 145 177 205 152 164 104 215 151 209 193 204 147 142 197 315 44 46 317 15 51 27 50 48 290 41 353 27 12 14 331 326 10 17 10 326 38 331 3 11 70 15 53 339 317 13 64 2 346 39 33 0 352
170 225 218 230 213 241 229 234 267 42 125 147 154 218 176 244 50 98 342 108 163 206 171 166 178 161 195 212 163 140 131 143 138 133 217 195 150 170 190 177 188 94 69 196 69 96 89 61 149 225 204 249 321 43 59 92 232 70 25 1 42 325 302 7 34 15 7 334 323 34 313 21 50 44 15 25 317 315 21 32 342 37 59 42 17 7
178 227 235 272 182 232 260 63 145 178 131 165 221 324 7 30 90 19 31 349 309 81 10 270 156 193 131 255 158 168 187 168 168 132 164 164 226 246 133 79 197 167 169 184 119 139 125 281 95 155 199 185 97 294 213 139 40 46 320 63 12 357 355 31 34 36 343 341 4 358 322 35 41 32 32 8 321 306 78 342 31 19 53 29 32 9
126 235 250 240 259 265 275 266 252 179 175 194 219 269 291 176 238 167 245 216 215 133 120 79 91 72 129 218 286 171 229 132 181 144 183 238 171 165 161 166 169 178 196 198 156 128 213 199 151 128 68 339 285 181 60 225 88 289 112 58 58 325 48 31 37 29 335 334 344 332 11 6 37 17 321 225 302 298 302 69 26 19 32 56 28 359
230 208 223 234 237 240 248 203 220 226 218 201 220 216 207 208 265 292 198 205 297 212 138 121 336 119 175 177 231 166 194 112 188 128 156 242 295 201 161 216 178 183 186 198 169 77 168 187 255 177 182 167 185 192 217 120 102 135 106 86 4 26 36 42 12 6 305 3 342 322 58 329 53 323 266 125 34 331 33 60 20 10 12 59 31 14
226 185 218 224 249 233 261 256 153 207 298 287 252 225 205 199 200 191 235 189 207 300 135 136 151 159 129 201 186 278 197 156 220 131 160 181 198 234 225 177 153 155 179 201 66 120 325 310 327 335 39 159 168 216 304 140 141 35 77 13 27 28 46 29 41 357 338 326 286 282 39 359 176 219 356 35 318 356 35 88 55 28 30 54 40 19
62 68 227 195 246 259 248 260 260 202 192 197 207 243 273 279 205 189 221 227 171 279 234 128 150 213 176 196 122 261 258 180 195 155 175 181 203 198 200 156 180 180 164 182 163 163 253 304 330 332 292 315 337 324 205 143 74 136 106 177 196 85 36 37 340 273 280 265 269 140 74 338 328 351 21 283 310 61 341 83 57 352 82 116 91 101
199 217 233 227 249 251 257 254 222 252 244 219 196 195 211 194 201 327 244 205 205 202 210 167 147 306 58 176 164 187 258 152 150 185 192 178 192 182 176 185 184 193 206 188 197 179 197 214 220 233 278 297 299 300 351 150 147 130 168 163 104 90 130 220 225 246 268 267 282 94 64 7 322 339 357 353 337 340 323 154 167 160 250 126 147 158
214 217 210 222 216 242 233 235 173 211 260 117 63 102 175 173 126 176 256 284 234 203 217 188 164 189 181 197 281 212 177 197 190 191 207 175 180 191 171 167 184 189 202 176 187 196 205 198 196 217 237 242 257 289 247 284 212 136 164 175 150 144 87 3 351 322 304 285 57 56 3 339 305 353 340 319 318 312 334 324 134 350 135 125 178 183